Summary – Current weather conditions in Chulilla

20/2/2020, 23:54
Puesta del sol a las Salida del sol a las
Hora Temperatures Pressure Wind Intensidad lluvia
11:54 9.8 °C 1024 mb 0 km/h 0.00 mm
11:44 9.9 °C 1024 mb 0 km/h 0.00 mm
11:34 9.9 °C 1024 mb 0 km/h 0.00 mm
11:24 9.9 °C 1024 mb 0 km/h 0.00 mm
11:14 9.7 °C 1025 mb 0 km/h 0.00 mm
11:04 9.6 °C 1024 mb 0 km/h 0.00 mm
10:54 9.7 °C 1024 mb 0 km/h 0.00 mm
10:44 9.8 °C 1024 mb 0 km/h 0.00 mm
10:34 9.9 °C 1024 mb 0 km/h 0.00 mm
10:24 9.9 °C 1024 mb 0 km/h 0.00 mm
10:14 10.0 °C 1024 mb 0 km/h 0.00 mm
10:04 10.1 °C 1024 mb 0 km/h 0.00 mm
09:54 10.2 °C 1024 mb 0 km/h 0.00 mm
09:44 10.3 °C 1024 mb 0 km/h 0.00 mm
09:34 10.5 °C 1024 mb 0 km/h 0.00 mm
09:24 10.7 °C 1024 mb 0 km/h 0.00 mm
09:14 10.8 °C 1024 mb 0 km/h 0.00 mm
09:04 11.0 °C 1024 mb 0 km/h 0.00 mm
08:54 11.2 °C 1024 mb 0 km/h 0.00 mm
08:44 11.5 °C 1024 mb 0 km/h 0.00 mm
08:34 11.5 °C 1023 mb 0 km/h 0.00 mm
08:24 11.4 °C 1024 mb 0 km/h 0.00 mm
08:14 11.4 °C 1023 mb 0 km/h 0.00 mm
08:04 11.4 °C 1023 mb 0 km/h 0.00 mm
07:54 11.7 °C 1023 mb 0 km/h 0.00 mm
07:44 11.8 °C 1023 mb 0 km/h 0.00 mm
07:34 11.9 °C 1023 mb 0 km/h 0.00 mm
07:24 12.1 °C 1023 mb 0 km/h 0.00 mm
07:14 12.2 °C 1023 mb 0 km/h 0.00 mm
07:04 12.4 °C 1023 mb 0 km/h 0.00 mm
06:54 12.8 °C 1022 mb 2 km/h 0.00 mm
06:44 13.2 °C 1022 mb 0 km/h 0.00 mm
06:34 13.6 °C 1022 mb 0 km/h 0.00 mm
06:24 13.8 °C 1022 mb 0 km/h 0.00 mm
06:14 14.0 °C 1022 mb 0 km/h 0.00 mm
06:04 14.4 °C 1021 mb 0 km/h 0.00 mm
05:54 14.6 °C 1021 mb 3 km/h 0.00 mm
05:44 15.3 °C 1021 mb 0 km/h 0.00 mm
05:34 16.1 °C 1021 mb 0 km/h 0.00 mm
05:24 16.4 °C 1021 mb 0 km/h 0.00 mm
05:14 16.9 °C 1021 mb 0 km/h 0.00 mm
05:04 18.2 °C 1020 mb 0 km/h 0.00 mm
04:54 18.6 °C 1020 mb 0 km/h 0.00 mm
04:44 18.4 °C 1020 mb 0 km/h 0.00 mm
04:34 18.7 °C 1020 mb 0 km/h 0.00 mm
04:24 18.7 °C 1020 mb 0 km/h 0.00 mm
04:14 18.7 °C 1020 mb 0 km/h 0.00 mm
04:04 18.8 °C 1020 mb 0 km/h 0.00 mm
03:54 18.6 °C 1020 mb 2 km/h 0.00 mm
03:44 18.6 °C 1020 mb 2 km/h 0.00 mm
03:34 18.6 °C 1020 mb 8 km/h 0.00 mm
03:24 18.5 °C 1020 mb 2 km/h 0.00 mm
03:14 18.5 °C 1020 mb 0 km/h 0.00 mm
03:04 18.5 °C 1020 mb 0 km/h 0.00 mm
02:54 18.2 °C 1020 mb 0 km/h 0.00 mm
02:44 18.2 °C 1020 mb 0 km/h 0.00 mm
02:34 18.1 °C 1020 mb 0 km/h 0.00 mm
02:24 18.3 °C 1020 mb 0 km/h 0.00 mm
02:14 18.1 °C 1021 mb 0 km/h 0.00 mm
02:04 17.7 °C 1021 mb 0 km/h 0.00 mm
01:54 17.6 °C 1021 mb 0 km/h 0.00 mm
01:44 17.3 °C 1021 mb 0 km/h 0.00 mm
01:34 17.3 °C 1021 mb 0 km/h 0.00 mm
01:24 16.9 °C 1021 mb 0 km/h 0.00 mm
01:14 16.7 °C 1021 mb 0 km/h 0.00 mm
01:04 16.3 °C 1022 mb 0 km/h 0.00 mm
12:54 16.1 °C 1022 mb 0 km/h 0.00 mm
12:44 15.7 °C 1022 mb 0 km/h 0.00 mm
12:34 15.4 °C 1022 mb 0 km/h 0.00 mm
12:24 14.9 °C 1022 mb 0 km/h 0.00 mm
12:14 14.5 °C 1022 mb 0 km/h 0.00 mm
12:04 14.1 °C 1023 mb 0 km/h 0.00 mm
11:54 13.7 °C 1023 mb 0 km/h 0.00 mm
11:44 13.4 °C 1023 mb 0 km/h 0.00 mm
11:34 12.6 °C 1023 mb 0 km/h 0.00 mm
11:24 12.3 °C 1023 mb 0 km/h 0.00 mm
11:14 11.8 °C 1023 mb 0 km/h 0.00 mm
11:04 11.1 °C 1023 mb 0 km/h 0.00 mm
10:54 10.2 °C 1023 mb 0 km/h 0.00 mm
10:44 9.8 °C 1023 mb 0 km/h 0.00 mm
10:34 9.2 °C 1023 mb 0 km/h 0.00 mm
10:24 8.9 °C 1023 mb 0 km/h 0.00 mm
10:14 8.3 °C 1023 mb 0 km/h 0.00 mm
10:04 7.8 °C 1024 mb 0 km/h 0.00 mm
09:54 7.4 °C 1024 mb 0 km/h 0.00 mm
09:44 7.2 °C 1024 mb 0 km/h 0.00 mm
09:34 6.9 °C 1024 mb 0 km/h 0.00 mm
09:24 6.7 °C 1023 mb 0 km/h 0.00 mm
09:14 6.3 °C 1023 mb 0 km/h 0.00 mm
09:04 6.2 °C 1023 mb 0 km/h 0.00 mm
08:54 6.0 °C 1023 mb 0 km/h 0.00 mm
08:44 5.8 °C 1023 mb 0 km/h 0.00 mm
08:34 5.8 °C 1023 mb 0 km/h 0.00 mm
08:24 5.8 °C 1023 mb 0 km/h 0.00 mm
08:14 5.8 °C 1023 mb 0 km/h 0.00 mm
08:04 5.8 °C 1023 mb 0 km/h 0.00 mm
07:54 5.9 °C 1023 mb 0 km/h 0.00 mm
07:44 5.9 °C 1023 mb 0 km/h 0.00 mm
07:34 5.8 °C 1023 mb 0 km/h 0.00 mm
07:24 5.8 °C 1023 mb 0 km/h 0.00 mm
07:14 5.6 °C 1023 mb 0 km/h 0.00 mm
07:04 5.2 °C 1023 mb 0 km/h 0.00 mm
06:54 5.2 °C 1023 mb 0 km/h 0.00 mm
06:44 5.6 °C 1023 mb 0 km/h 0.00 mm
06:34 6.4 °C 1023 mb 0 km/h 0.00 mm
06:24 6.6 °C 1023 mb 0 km/h 0.00 mm
06:14 6.7 °C 1023 mb 0 km/h 0.00 mm
06:04 6.8 °C 1023 mb 0 km/h 0.00 mm
05:54 6.9 °C 1023 mb 0 km/h 0.00 mm
05:44 7.0 °C 1023 mb 0 km/h 0.00 mm
05:34 6.5 °C 1023 mb 0 km/h 0.00 mm
05:24 6.2 °C 1023 mb 0 km/h 0.00 mm
05:14 6.1 °C 1023 mb 0 km/h 0.00 mm
05:04 6.2 °C 1023 mb 0 km/h 0.00 mm
04:54 6.3 °C 1023 mb 0 km/h 0.00 mm
04:44 6.3 °C 1023 mb 0 km/h 0.00 mm
04:34 6.7 °C 1023 mb 0 km/h 0.00 mm
04:24 6.4 °C 1023 mb 0 km/h 0.00 mm
04:14 6.4 °C 1023 mb 0 km/h 0.00 mm
04:04 6.6 °C 1023 mb 0 km/h 0.00 mm
03:54 6.9 °C 1023 mb 0 km/h 0.00 mm
03:44 6.8 °C 1023 mb 0 km/h 0.00 mm
03:34 6.9 °C 1024 mb 0 km/h 0.00 mm
03:24 7.1 °C 1024 mb 0 km/h 0.00 mm
03:14 7.3 °C 1024 mb 0 km/h 0.00 mm
03:04 7.4 °C 1024 mb 0 km/h 0.00 mm
02:54 7.6 °C 1024 mb 0 km/h 0.00 mm
02:44 7.4 °C 1024 mb 0 km/h 0.00 mm
02:34 7.3 °C 1024 mb 0 km/h 0.00 mm
02:24 7.9 °C 1024 mb 0 km/h 0.00 mm
02:14 8.0 °C 1024 mb 0 km/h 0.00 mm
02:04 8.1 °C 1025 mb 0 km/h 0.00 mm
01:54 8.6 °C 1025 mb 0 km/h 0.00 mm
01:44 8.4 °C 1025 mb 0 km/h 0.00 mm
01:34 8.2 °C 1025 mb 0 km/h 0.00 mm
01:24 8.2 °C 1025 mb 0 km/h 0.00 mm
01:14 8.4 °C 1025 mb 0 km/h 0.00 mm
01:04 8.6 °C 1025 mb 0 km/h 0.00 mm
12:54 8.7 °C 1025 mb 0 km/h 0.00 mm
12:44 9.1 °C 1025 mb 0 km/h 0.00 mm
12:34 9.2 °C 1025 mb 0 km/h 0.00 mm
12:24 9.2 °C 1025 mb 0 km/h 0.00 mm
12:14 9.4 °C 1025 mb 0 km/h 0.00 mm
12:04 9.6 °C 1025 mb 0 km/h 0.00 mm
Dia anterior | Dia siguente